When you browse on this site, cookies collect data to enhance your experience and personalize the content and advertising you see.
Visit our Privacy Policy to learn more. By continuing to use the site, you agree to this use of cookies and data.
  • In Hungary
  • List of Countries
  • For 7 days
  • Water Temperature
  • Weather Map
  • News
  • Weather Widgets
  • user-avatar
    Login

    Hourly Weather Sordylowka

    Today, 22 September, Sunday

    Time Temperature Precipitation Wind Pressure Humidity
    00:00 +8°C° 0 mm 1 mps 710 mmHg 80%
    01:00 +6°C° 0 mm 2 mps 709 mmHg 80%
    02:00 +7°C° 0 mm 1 mps 709 mmHg 79%
    03:00 +7°C° 0 mm 1 mps 709 mmHg 79%
    04:00 +7°C° 0 mm 1 mps 709 mmHg 78%
    05:00 +8°C° 0 mm 1 mps 709 mmHg 75%
    06:00 +8°C° 0 mm 1 mps 709 mmHg 73%
    07:00 +9°C° 0 mm 1 mps 709 mmHg 70%
    08:00 +12°C° 0 mm 1 mps 709 mmHg 63%
    09:00 +14°C° 0 mm 1 mps 709 mmHg 55%
    10:00 +18°C° 0 mm 1 mps 709 mmHg 48%
    11:00 +19°C° 0 mm 1 mps 709 mmHg 46%
    12:00 +20°C° 0 mm 1 mps 709 mmHg 45%
    13:00 +21°C° 0 mm 1 mps 708 mmHg 43%
    14:00 +20°C° 0 mm 1 mps 708 mmHg 48%
    15:00 +20°C° 0 mm 1 mps 707 mmHg 53%
    16:00 +19°C° 0 mm 1 mps 707 mmHg 58%
    17:00 +16°C° 0 mm 1 mps 707 mmHg 65%
    18:00 +14°C° 0 mm 1 mps 706 mmHg 72%
    19:00 +12°C° 0 mm 1 mps 706 mmHg 79%
    20:00 +11°C° 0 mm 1 mps 706 mmHg 78%
    21:00 +11°C° 0 mm 1 mps 706 mmHg 78%
    22:00 +10°C° 0 mm 1 mps 706 mmHg 78%
    23:00 +10°C° 0 mm 1 mps 706 mmHg 76%

    Tomorrow, 23 September, Monday

    Time Temperature Precipitation Wind Pressure Humidity
    00:00 +10°C° 0 mm 1 mps 705 mmHg 74%
    01:00 +10°C° 0 mm 1 mps 705 mmHg 71%
    02:00 +10°C° 0 mm 1 mps 705 mmHg 68%
    03:00 +11°C° 0 mm 1 mps 705 mmHg 65%
    04:00 +11°C° 0 mm 1 mps 705 mmHg 62%
    05:00 +12°C° 0 mm 1 mps 705 mmHg 62%
    06:00 +12°C° 0 mm 1 mps 705 mmHg 62%
    07:00 +12°C° 0 mm 1 mps 705 mmHg 63%
    08:00 +13°C° 0 mm 1 mps 705 mmHg 62%
    09:00 +13°C° 0 mm 1 mps 705 mmHg 62%
    10:00 +14°C° 0 mm 1 mps 705 mmHg 61%
    11:00 +15°C° 0 mm 1 mps 705 mmHg 59%
    12:00 +16°C° 0 mm 1 mps 705 mmHg 57%
    13:00 +16°C° 0 mm 0 mps 705 mmHg 55%
    14:00 +16°C° 0 mm 0 mps 705 mmHg 58%
    15:00 +15°C° 0 mm 0 mps 705 mmHg 61%
    16:00 +15°C° 0 mm 0 mps 705 mmHg 63%
    17:00 +14°C° 0 mm 0 mps 705 mmHg 67%
    18:00 +13°C° 0 mm 0 mps 705 mmHg 70%
    19:00 +12°C° 0 mm 1 mps 704 mmHg 73%
    20:00 +13°C° 0 mm 1 mps 705 mmHg 72%
    21:00 +13°C° 0 mm 1 mps 705 mmHg 71%
    22:00 +13°C° 0 mm 1 mps 705 mmHg 71%
    23:00 +13°C° 0 mm 1 mps 705 mmHg 72%

    Day after tomorrow, 24 September, Tuesday

    Time Temperature Precipitation Wind Pressure Humidity
    00:00 +12°C° 0 mm 0 mps 705 mmHg 73%
    01:00 +11°C° 0 mm 0 mps 705 mmHg 75%
    02:00 +11°C° 0 mm 0 mps 705 mmHg 76%
    03:00 +11°C° 0 mm 0 mps 704 mmHg 78%
    04:00 +11°C° 0 mm 0 mps 704 mmHg 80%
    05:00 +11°C° 0 mm 0 mps 704 mmHg 80%
    06:00 +11°C° 0 mm 0 mps 704 mmHg 80%
    07:00 +11°C° 0 mm 0 mps 704 mmHg 80%
    08:00 +12°C° 0 mm 0 mps 704 mmHg 77%
    09:00 +14°C° 0 mm 0 mps 704 mmHg 73%
    10:00 +16°C° 0 mm 1 mps 704 mmHg 70%
    11:00 +18°C° 0 mm 1 mps 704 mmHg 66%
    12:00 +19°C° 0 mm 1 mps 704 mmHg 62%
    13:00 +20°C° 0 mm 1 mps 704 mmHg 57%
    14:00 +20°C° 0.4 mm 1 mps 703 mmHg 63%
    15:00 +19°C° 0.4 mm 1 mps 703 mmHg 68%
    16:00 +18°C° 0.4 mm 1 mps 702 mmHg 73%
    17:00 +15°C° 0.1 mm 0 mps 702 mmHg 76%
    18:00 +14°C° 0.1 mm 0 mps 702 mmHg 79%
    19:00 +13°C° 0.1 mm 0 mps 702 mmHg 82%
    20:00 +12°C° 0 mm 0 mps 702 mmHg 83%
    21:00 +13°C° 0 mm 1 mps 702 mmHg 84%
    22:00 +13°C° 0 mm 1 mps 702 mmHg 85%
    23:00 +13°C° 0 mm 1 mps 701 mmHg 86%

    25 September, Wednesday

    Time Temperature Precipitation Wind Pressure Humidity
    00:00 +12°C° 0 mm 1 mps 701 mmHg 86%
    01:00 +12°C° 0 mm 1 mps 701 mmHg 87%
    02:00 +12°C° 0 mm 1 mps 701 mmHg 87%
    03:00 +12°C° 0 mm 1 mps 701 mmHg 88%
    04:00 +12°C° 0 mm 2 mps 701 mmHg 88%
    05:00 +12°C° 0 mm 2 mps 701 mmHg 88%
    06:00 +12°C° 0 mm 2 mps 700 mmHg 87%
    07:00 +12°C° 0 mm 2 mps 700 mmHg 87%
    08:00 +14°C° 0.1 mm 2 mps 701 mmHg 82%
    09:00 +15°C° 0.1 mm 2 mps 701 mmHg 76%
    10:00 +16°C° 0.1 mm 3 mps 701 mmHg 71%
    11:00 +16°C° 0.1 mm 3 mps 701 mmHg 69%
    12:00 +17°C° 0.1 mm 3 mps 701 mmHg 68%
    13:00 +17°C° 0.1 mm 4 mps 701 mmHg 66%
    14:00 +15°C° 0.2 mm 4 mps 701 mmHg 70%
    15:00 +15°C° 0.2 mm 4 mps 700 mmHg 73%
    16:00 +14°C° 0.2 mm 4 mps 700 mmHg 77%
    17:00 +13°C° 0 mm 3 mps 701 mmHg 78%
    18:00 +13°C° 0 mm 3 mps 701 mmHg 80%
    19:00 +12°C° 0 mm 3 mps 701 mmHg 81%
    20:00 +12°C° 0.1 mm 3 mps 701 mmHg 82%
    21:00 +11°C° 0.1 mm 3 mps 702 mmHg 83%
    22:00 +11°C° 0.1 mm 3 mps 702 mmHg 83%
    23:00 +10°C° 0 mm 3 mps 702 mmHg 85%

    26 September, Thursday

    Time Temperature Precipitation Wind Pressure Humidity
    00:00 +9°C° 0 mm 3 mps 702 mmHg 87%
    01:00 +8°C° 0 mm 3 mps 702 mmHg 89%
    02:00 +8°C° 0 mm 3 mps 702 mmHg 89%
    03:00 +8°C° 0 mm 2 mps 702 mmHg 90%
    04:00 +7°C° 0 mm 2 mps 702 mmHg 90%
    05:00 +8°C° 0 mm 2 mps 702 mmHg 89%
    06:00 +8°C° 0 mm 3 mps 703 mmHg 88%
    07:00 +9°C° 0 mm 3 mps 703 mmHg 87%
    08:00 +10°C° 0 mm 3 mps 703 mmHg 80%
    09:00 +12°C° 0 mm 3 mps 704 mmHg 73%
    10:00 +13°C° 0 mm 3 mps 704 mmHg 66%
    11:00 +13°C° 0 mm 4 mps 704 mmHg 67%
    12:00 +13°C° 0 mm 4 mps 704 mmHg 67%
    13:00 +13°C° 0 mm 5 mps 704 mmHg 68%
    14:00 +12°C° 0 mm 4 mps 704 mmHg 71%
    15:00 +12°C° 0 mm 3 mps 704 mmHg 75%
    16:00 +11°C° 0 mm 3 mps 704 mmHg 78%
    17:00 +11°C° 0 mm 3 mps 704 mmHg 81%
    18:00 +10°C° 0 mm 2 mps 704 mmHg 83%
    19:00 +10°C° 0 mm 2 mps 704 mmHg 86%
    20:00 +10°C° 0 mm 2 mps 705 mmHg 86%
    21:00 +9°C° 0 mm 2 mps 705 mmHg 87%
    22:00 +9°C° 0 mm 2 mps 705 mmHg 88%
    23:00 +9°C° 0 mm 2 mps 705 mmHg 88%

    27 September, Friday

    Time Temperature Precipitation Wind Pressure Humidity
    00:00 +9°C° 0 mm 2 mps 705 mmHg 87%
    01:00 +9°C° 0 mm 2 mps 705 mmHg 87%
    02:00 +9°C° 0 mm 2 mps 705 mmHg 85%
    03:00 +10°C° 0 mm 2 mps 705 mmHg 82%
    04:00 +10°C° 0 mm 2 mps 705 mmHg 80%
    05:00 +10°C° 0 mm 2 mps 705 mmHg 79%
    06:00 +12°C° 0 mm 2 mps 705 mmHg 78%
    07:00 +12°C° 0 mm 2 mps 705 mmHg 78%
    08:00 +13°C° 0 mm 2 mps 705 mmHg 76%
    09:00 +13°C° 0 mm 2 mps 705 mmHg 75%
    10:00 +14°C° 0 mm 2 mps 706 mmHg 73%
    11:00 +16°C° 0 mm 2 mps 706 mmHg 68%
    12:00 +17°C° 0 mm 2 mps 706 mmHg 63%
    13:00 +19°C° 0 mm 2 mps 706 mmHg 58%
    14:00 +19°C° 0 mm 1 mps 705 mmHg 60%
    15:00 +19°C° 0 mm 1 mps 705 mmHg 62%
    16:00 +19°C° 0 mm 1 mps 705 mmHg 65%
    17:00 +18°C° 0 mm 1 mps 705 mmHg 70%
    18:00 +15°C° 0 mm 1 mps 705 mmHg 74%
    19:00 +13°C° 0 mm 1 mps 704 mmHg 79%
    20:00 +13°C° 0 mm 1 mps 704 mmHg 80%
    21:00 +13°C° 0 mm 1 mps 704 mmHg 80%
    22:00 +12°C° 0 mm 1 mps 704 mmHg 81%
    23:00 +13°C° 0 mm 1 mps 704 mmHg 80%
    Show more